Location: Newark
(46.7000°N, 60.6000°W)
Time: 16:04:20
(UTC+00:00)

Transit 2A - Visible Passes

Search period start: 21 October 2020 00:00
Search period end: 31 October 2020 00:00
Orbit: 592 x 966 km, 66.7° (Epoch: 20 October)

Date Brightness Start Highest point End Pass type
(mag) Time Alt. Az. Time Alt. Az. Time Alt. Az.
21 Oct 9.0 05:38:35 14° ENE 05:38:35 14° ENE 05:39:39 10° ENE visible
21 Oct 6.9 07:19:05 55° NNE 07:19:05 55° NNE 07:23:55 10° NNE visible
21 Oct 7.7 08:59:36 20° WNW 09:01:49 23° NW 09:06:42 10° NNE visible
22 Oct 7.7 06:46:13 36° NE 06:46:13 36° NE 06:49:44 10° NE visible
22 Oct 7.4 08:26:43 28° NW 08:27:21 28° NW 08:32:40 10° NNE visible
23 Oct 8.4 06:13:17 23° NE 06:13:17 23° NE 06:15:29 10° NE visible
23 Oct 7.4 07:53:47 34° NNW 07:53:47 34° NNW 07:58:36 10° NNE visible
23 Oct 8.3 09:34:55 10° NW 09:38:04 14° NNW 09:41:09 10° N visible
24 Oct 9.0 05:40:19 14° NE 05:40:19 14° NE 05:41:10 10° NE visible
24 Oct 7.6 07:20:49 33° N 07:20:49 33° N 07:24:32 10° NNE visible
24 Oct 8.1 09:01:19 14° NW 09:03:26 16° NNW 09:07:07 10° NNE visible
25 Oct 8.1 06:47:48 26° NNE 06:47:48 26° NNE 06:50:26 10° NNE visible
25 Oct 8.0 08:28:18 19° NW 08:28:50 19° NNW 08:33:04 10° NNE visible
26 Oct 8.7 06:14:46 19° NNE 06:14:46 19° NNE 06:16:18 10° NNE visible
26 Oct 8.0 07:55:16 22° NNW 07:55:16 22° NNW 07:59:02 10° NNE visible
26 Oct 8.5 09:38:14 10° NNW 09:39:58 11° N 09:41:39 10° N visible
27 Oct 9.1 05:41:42 12° NE 05:41:42 12° NE 05:42:07 10° NE visible
27 Oct 8.1 07:22:11 22° N 07:22:11 22° N 07:25:00 10° NNE visible
27 Oct 8.4 09:02:56 10° NW 09:05:15 12° NNW 09:07:31 10° N visible
28 Oct 8.5 06:49:06 19° N 06:49:06 19° N 06:50:57 10° NNE visible
28 Oct 8.3 08:29:35 13° NNW 08:30:34 13° NNW 08:33:27 10° N visible
29 Oct 8.9 06:15:59 14° NNE 06:15:59 14° NNE 06:16:52 10° NNE visible
29 Oct 8.3 07:56:28 15° NNW 07:56:28 15° NNW 07:59:25 10° NNE visible
29 Oct 8.6 09:40:47 10° N 09:41:55 10° N 09:43:02 10° NNE visible
30 Oct 8.5 07:23:20 16° N 07:23:20 16° N 07:25:23 10° NNE visible
30 Oct 8.6 09:06:07 10° NNW 09:07:11 10° N 09:08:14 10° N visible
